Year,Month,Day,Hour,Minute,Value (Times are PST for temperature in C)
2013,09,24,00,00,5.40
2013,09,24,00,01,5.30
2013,09,24,00,02,5.20
2013,09,24,00,03,5.20
2013,09,24,00,04,5.20
2013,09,24,00,05,5.20
2013,09,24,00,06,5.20
2013,09,24,00,07,5.20
2013,09,24,00,08,5.20
2013,09,24,00,09,5.20
2013,09,24,00,10,5.20
2013,09,24,00,11,5.20
2013,09,24,00,12,5.10
2013,09,24,00,13,5.10
2013,09,24,00,14,5.10
2013,09,24,00,15,5.10
2013,09,24,00,16,5.10
2013,09,24,00,17,5.10
2013,09,24,00,18,5.10
2013,09,24,00,19,5.10
2013,09,24,00,20,5.10
2013,09,24,00,21,5.10
2013,09,24,00,22,5.10
2013,09,24,00,23,5.20
2013,09,24,00,24,5.20
2013,09,24,00,25,5.20
2013,09,24,00,26,5.20
2013,09,24,00,27,5.30
2013,09,24,00,28,5.30
2013,09,24,00,29,5.40
2013,09,24,00,30,5.40
2013,09,24,00,31,5.40
2013,09,24,00,32,5.50
2013,09,24,00,33,5.50
2013,09,24,00,34,5.50
2013,09,24,00,35,5.60
2013,09,24,00,36,5.60
2013,09,24,00,37,5.60
2013,09,24,00,38,5.50
2013,09,24,00,39,5.50
2013,09,24,00,40,5.50
2013,09,24,00,41,5.50
2013,09,24,00,42,5.40
2013,09,24,00,43,5.40
2013,09,24,00,44,5.40
2013,09,24,00,45,5.40
2013,09,24,00,46,5.40
2013,09,24,00,47,5.30
2013,09,24,00,48,5.30
2013,09,24,00,49,5.20
2013,09,24,00,50,5.20
2013,09,24,00,51,5.20
2013,09,24,00,52,5.10
2013,09,24,00,53,5.10
2013,09,24,00,54,5.10
2013,09,24,00,55,5.10
2013,09,24,00,56,5.00
2013,09,24,00,57,5.10
2013,09,24,00,58,5.10
2013,09,24,00,59,5.10
2013,09,24,01,00,5.10
2013,09,24,01,01,5.10
2013,09,24,01,02,5.10
2013,09,24,01,03,5.10
2013,09,24,01,04,5.10
2013,09,24,01,05,5.10
2013,09,24,01,06,5.10
2013,09,24,01,07,5.10
2013,09,24,01,08,5.10
2013,09,24,01,09,5.20
2013,09,24,01,10,5.20
2013,09,24,01,11,5.20
2013,09,24,01,12,5.20
2013,09,24,01,13,5.20
2013,09,24,01,14,5.20
2013,09,24,01,15,5.20
2013,09,24,01,16,5.20
2013,09,24,01,17,5.30
2013,09,24,01,18,5.30
2013,09,24,01,19,5.30
2013,09,24,01,20,5.30
2013,09,24,01,21,5.30
2013,09,24,01,22,5.30
2013,09,24,01,23,5.30
2013,09,24,01,24,5.30
2013,09,24,01,25,5.30
2013,09,24,01,26,5.30
2013,09,24,01,27,5.30
2013,09,24,01,28,5.30
2013,09,24,01,29,5.30
2013,09,24,01,30,5.30
2013,09,24,01,31,5.30
2013,09,24,01,32,5.30
2013,09,24,01,33,5.30
2013,09,24,01,34,5.30
2013,09,24,01,35,5.30
2013,09,24,01,36,5.30
2013,09,24,01,37,5.30
2013,09,24,01,38,5.30
2013,09,24,01,39,5.30
2013,09,24,01,40,5.30
2013,09,24,01,41,5.30
2013,09,24,01,42,5.30
2013,09,24,01,43,5.30
2013,09,24,01,44,5.30
2013,09,24,01,45,5.30
2013,09,24,01,46,5.30
2013,09,24,01,47,5.30
2013,09,24,01,48,5.30
2013,09,24,01,49,5.30
2013,09,24,01,50,5.40
2013,09,24,01,51,5.40
2013,09,24,01,52,5.40
2013,09,24,01,53,5.40
2013,09,24,01,54,5.40
2013,09,24,01,55,5.40
2013,09,24,01,56,5.40
2013,09,24,01,57,5.40
2013,09,24,01,58,5.40
2013,09,24,01,59,5.40
2013,09,24,02,00,5.40
2013,09,24,02,01,5.40
2013,09,24,02,02,5.40
2013,09,24,02,03,5.40
2013,09,24,02,04,5.40
2013,09,24,02,05,5.40
2013,09,24,02,06,5.40
2013,09,24,02,07,5.40
2013,09,24,02,08,5.40
2013,09,24,02,09,5.40
2013,09,24,02,10,5.40
2013,09,24,02,11,5.40
2013,09,24,02,12,5.50
2013,09,24,02,13,5.50
2013,09,24,02,14,5.50
2013,09,24,02,15,5.50
2013,09,24,02,16,5.50
2013,09,24,02,17,5.50
2013,09,24,02,18,5.50
2013,09,24,02,19,5.40
2013,09,24,02,20,5.40
2013,09,24,02,21,5.50
2013,09,24,02,22,5.40
2013,09,24,02,23,5.40
2013,09,24,02,24,5.40
2013,09,24,02,25,5.40
2013,09,24,02,26,5.40
2013,09,24,02,27,5.40
2013,09,24,02,28,5.40
2013,09,24,02,29,5.40
2013,09,24,02,30,5.30
2013,09,24,02,31,5.30
2013,09,24,02,32,5.30
2013,09,24,02,33,5.30
2013,09,24,02,34,5.30
2013,09,24,02,35,5.30
2013,09,24,02,36,5.30
2013,09,24,02,37,5.30
2013,09,24,02,38,5.30
2013,09,24,02,39,5.30
2013,09,24,02,40,5.30
2013,09,24,02,41,5.30
2013,09,24,02,42,5.30
2013,09,24,02,43,5.30
2013,09,24,02,44,5.30
2013,09,24,02,45,5.30
2013,09,24,02,46,5.30
2013,09,24,02,47,5.30
2013,09,24,02,48,5.30
2013,09,24,02,49,5.30
2013,09,24,02,50,5.30
2013,09,24,02,51,5.30
2013,09,24,02,52,5.30
2013,09,24,02,53,5.30
2013,09,24,02,54,5.30
2013,09,24,02,55,5.30
2013,09,24,02,56,5.40
2013,09,24,02,57,5.40
2013,09,24,02,58,5.40
2013,09,24,02,59,5.40
2013,09,24,03,00,5.40
2013,09,24,03,01,5.40
2013,09,24,03,02,5.40
2013,09,24,03,03,5.40
2013,09,24,03,04,5.40
2013,09,24,03,05,5.40
2013,09,24,03,06,5.30
2013,09,24,03,07,5.30
2013,09,24,03,08,5.30
2013,09,24,03,09,5.30
2013,09,24,03,10,5.30
2013,09,24,03,11,5.20
2013,09,24,03,12,5.20
2013,09,24,03,13,5.10
2013,09,24,03,14,5.10
2013,09,24,03,15,5.10
2013,09,24,03,16,5.00
2013,09,24,03,17,5.00
2013,09,24,03,18,5.00
2013,09,24,03,19,5.00
2013,09,24,03,20,5.00
2013,09,24,03,21,5.00
2013,09,24,03,22,5.10
2013,09,24,03,23,5.10
2013,09,24,03,24,5.10
2013,09,24,03,25,5.10
2013,09,24,03,26,5.10
2013,09,24,03,27,5.10
2013,09,24,03,28,5.10
2013,09,24,03,29,5.10
2013,09,24,03,30,5.10
2013,09,24,03,31,5.10
2013,09,24,03,32,5.10
2013,09,24,03,33,5.10
2013,09,24,03,34,5.10
2013,09,24,03,35,5.10
2013,09,24,03,36,5.10
2013,09,24,03,37,5.10
2013,09,24,03,38,5.10
2013,09,24,03,39,5.10
2013,09,24,03,40,5.20
2013,09,24,03,41,5.20
2013,09,24,03,42,5.20
2013,09,24,03,43,5.20
2013,09,24,03,44,5.20
2013,09,24,03,45,5.20
2013,09,24,03,46,5.30
2013,09,24,03,47,5.30
2013,09,24,03,48,5.30
2013,09,24,03,49,5.30
2013,09,24,03,50,5.30
2013,09,24,03,51,5.30
2013,09,24,03,52,5.30
2013,09,24,03,53,5.30
2013,09,24,03,54,5.20
2013,09,24,03,55,5.20
2013,09,24,03,56,5.20
2013,09,24,03,57,5.20
2013,09,24,03,58,5.20
2013,09,24,03,59,5.20
2013,09,24,04,00,5.20
2013,09,24,04,01,5.20
2013,09,24,04,02,5.20
2013,09,24,04,03,5.20
2013,09,24,04,04,5.20
2013,09,24,04,05,5.20
2013,09,24,04,06,5.20
2013,09,24,04,07,5.20
2013,09,24,04,08,5.20
2013,09,24,04,09,5.20
2013,09,24,04,10,5.30
2013,09,24,04,11,5.30
2013,09,24,04,12,5.30
2013,09,24,04,13,5.30
2013,09,24,04,14,5.30
2013,09,24,04,15,5.30
2013,09,24,04,16,5.30
2013,09,24,04,17,5.40
2013,09,24,04,18,5.40
2013,09,24,04,19,5.40
2013,09,24,04,20,5.40
2013,09,24,04,21,5.40
2013,09,24,04,22,5.40
2013,09,24,04,23,5.40
2013,09,24,04,24,5.40
2013,09,24,04,25,5.50
2013,09,24,04,26,5.50
2013,09,24,04,27,5.50
2013,09,24,04,28,5.50
2013,09,24,04,29,5.50
2013,09,24,04,30,5.60
2013,09,24,04,31,5.60
2013,09,24,04,32,5.70
2013,09,24,04,33,5.70
2013,09,24,04,34,5.70
2013,09,24,04,35,5.70
2013,09,24,04,36,5.70
2013,09,24,04,37,5.70
2013,09,24,04,38,5.70
2013,09,24,04,39,5.70
2013,09,24,04,40,5.70
2013,09,24,04,41,5.70
2013,09,24,04,42,5.70
2013,09,24,04,43,5.70
2013,09,24,04,44,5.70
2013,09,24,04,45,5.80
2013,09,24,04,46,5.80
2013,09,24,04,47,5.80
2013,09,24,04,48,5.80
2013,09,24,04,49,5.80
2013,09,24,04,50,5.80
2013,09,24,04,51,5.80
2013,09,24,04,52,5.80
2013,09,24,04,53,5.80
2013,09,24,04,54,5.80
2013,09,24,04,55,5.80
2013,09,24,04,56,5.80
2013,09,24,04,57,5.80
2013,09,24,04,58,5.80
2013,09,24,04,59,5.80
2013,09,24,05,00,5.80
2013,09,24,05,01,5.80
2013,09,24,05,02,5.80
2013,09,24,05,03,5.80
2013,09,24,05,04,5.80
2013,09,24,05,05,5.80
2013,09,24,05,06,5.90
2013,09,24,05,07,5.90
2013,09,24,05,08,5.90
2013,09,24,05,09,5.90
2013,09,24,05,10,5.90
2013,09,24,05,11,5.90
2013,09,24,05,12,5.90
2013,09,24,05,13,5.90
2013,09,24,05,14,5.90
2013,09,24,05,15,6.00
2013,09,24,05,16,6.00
2013,09,24,05,17,6.00
2013,09,24,05,18,6.00
2013,09,24,05,19,6.00
2013,09,24,05,20,6.00
2013,09,24,05,21,6.10
2013,09,24,05,22,6.10
2013,09,24,05,23,6.10
2013,09,24,05,24,6.10
2013,09,24,05,25,6.10
2013,09,24,05,26,6.10
2013,09,24,05,27,6.20
2013,09,24,05,28,6.20
2013,09,24,05,29,6.20
2013,09,24,05,30,6.20
2013,09,24,05,31,6.10
2013,09,24,05,32,6.10
2013,09,24,05,33,6.10
2013,09,24,05,34,6.10
2013,09,24,05,35,6.10
2013,09,24,05,36,6.10
2013,09,24,05,37,6.10
2013,09,24,05,38,6.10
2013,09,24,05,39,6.00
2013,09,24,05,40,6.00
2013,09,24,05,41,6.00
2013,09,24,05,42,6.00
2013,09,24,05,43,6.10
2013,09,24,05,44,6.10
2013,09,24,05,45,6.10
2013,09,24,05,46,6.10
2013,09,24,05,47,6.10
2013,09,24,05,48,6.10
2013,09,24,05,49,6.20
2013,09,24,05,50,6.20
2013,09,24,05,51,6.20
2013,09,24,05,52,6.20
2013,09,24,05,53,6.20
2013,09,24,05,54,6.20
2013,09,24,05,55,6.20
2013,09,24,05,56,6.20
2013,09,24,05,57,6.30
2013,09,24,05,58,6.30
2013,09,24,05,59,6.30
2013,09,24,06,00,6.30
2013,09,24,06,01,6.30
2013,09,24,06,02,6.30
2013,09,24,06,03,6.30
2013,09,24,06,04,6.30
2013,09,24,06,05,6.30
2013,09,24,06,06,6.20
2013,09,24,06,07,6.20
2013,09,24,06,08,6.20
2013,09,24,06,09,6.20
2013,09,24,06,10,6.20
2013,09,24,06,11,6.20
2013,09,24,06,12,6.20
2013,09,24,06,13,6.20
2013,09,24,06,14,6.20
2013,09,24,06,15,6.30
2013,09,24,06,16,6.30
2013,09,24,06,17,6.20
2013,09,24,06,18,6.10
2013,09,24,06,19,6.00
2013,09,24,06,20,6.00
2013,09,24,06,21,5.90
2013,09,24,06,22,5.90
2013,09,24,06,23,5.90
2013,09,24,06,24,5.90
2013,09,24,06,25,5.80
2013,09,24,06,26,5.80
2013,09,24,06,27,5.80
2013,09,24,06,28,5.80
2013,09,24,06,29,5.80
2013,09,24,06,30,5.90
2013,09,24,06,31,5.90
2013,09,24,06,32,5.90
2013,09,24,06,33,5.90
2013,09,24,06,34,6.00
2013,09,24,06,35,6.00
2013,09,24,06,36,6.10
2013,09,24,06,37,6.20
2013,09,24,06,38,6.20
2013,09,24,06,39,6.30
2013,09,24,06,40,6.30
2013,09,24,06,41,6.30
2013,09,24,06,42,6.40
2013,09,24,06,43,6.40
2013,09,24,06,44,6.50
2013,09,24,06,45,6.50
2013,09,24,06,46,6.50
2013,09,24,06,47,6.60
2013,09,24,06,48,6.60
2013,09,24,06,49,6.60
2013,09,24,06,50,6.60
2013,09,24,06,51,6.60
2013,09,24,06,52,6.60
2013,09,24,06,53,6.60
2013,09,24,06,54,6.60
2013,09,24,06,55,6.60
2013,09,24,06,56,6.50
2013,09,24,06,57,6.40
2013,09,24,06,58,6.30
2013,09,24,06,59,6.30
2013,09,24,07,00,6.20
2013,09,24,07,01,6.20
2013,09,24,07,02,6.10
2013,09,24,07,03,6.10
2013,09,24,07,04,6.10
2013,09,24,07,05,6.10
2013,09,24,07,06,6.10
2013,09,24,07,07,6.10
2013,09,24,07,08,6.10
2013,09,24,07,09,6.10
2013,09,24,07,10,6.10
2013,09,24,07,11,6.10
2013,09,24,07,12,6.10
2013,09,24,07,13,6.00
2013,09,24,07,14,5.90
2013,09,24,07,15,5.80
2013,09,24,07,16,5.80
2013,09,24,07,17,5.70
2013,09,24,07,18,5.60
2013,09,24,07,19,5.60
2013,09,24,07,20,5.50
2013,09,24,07,21,5.50
2013,09,24,07,22,5.50
2013,09,24,07,23,5.50
2013,09,24,07,24,5.50
2013,09,24,07,25,5.50
2013,09,24,07,26,5.50
2013,09,24,07,27,5.40
2013,09,24,07,28,5.40
2013,09,24,07,29,5.40
2013,09,24,07,30,5.40
2013,09,24,07,31,5.30
2013,09,24,07,32,5.30
2013,09,24,07,33,5.30
2013,09,24,07,34,5.30
2013,09,24,07,35,5.30
2013,09,24,07,36,5.40
2013,09,24,07,37,5.50
2013,09,24,07,38,5.50
2013,09,24,07,39,5.60
2013,09,24,07,40,5.60
2013,09,24,07,41,5.60
2013,09,24,07,42,5.70
2013,09,24,07,43,5.70
2013,09,24,07,44,5.80
2013,09,24,07,45,5.80
2013,09,24,07,46,5.80
2013,09,24,07,47,5.80
2013,09,24,07,48,5.70
2013,09,24,07,49,5.70
2013,09,24,07,50,5.60
2013,09,24,07,51,5.60
2013,09,24,07,52,5.50
2013,09,24,07,53,5.50
2013,09,24,07,54,5.50
2013,09,24,07,55,5.50
2013,09,24,07,56,5.50
2013,09,24,07,57,5.50
2013,09,24,07,58,5.50
2013,09,24,07,59,5.60
2013,09,24,08,00,5.60
2013,09,24,08,01,5.60
2013,09,24,08,02,5.60
2013,09,24,08,03,5.60
2013,09,24,08,04,5.60
2013,09,24,08,05,5.60
2013,09,24,08,06,5.70
2013,09,24,08,07,5.70
2013,09,24,08,08,5.80
2013,09,24,08,09,5.80
2013,09,24,08,10,5.90
2013,09,24,08,11,6.00
2013,09,24,08,12,6.10
2013,09,24,08,13,6.20
2013,09,24,08,14,6.30
2013,09,24,08,15,6.40
2013,09,24,08,16,6.50
2013,09,24,08,17,6.60
2013,09,24,08,18,6.70
2013,09,24,08,19,6.80
2013,09,24,08,20,6.80
2013,09,24,08,21,6.80
2013,09,24,08,22,6.90
2013,09,24,08,23,6.90
2013,09,24,08,24,6.90
2013,09,24,08,25,6.90
2013,09,24,08,26,7.00
2013,09,24,08,27,7.00
2013,09,24,08,28,7.00
2013,09,24,08,29,7.00
2013,09,24,08,30,6.90
2013,09,24,08,31,6.90
2013,09,24,08,32,6.90
2013,09,24,08,33,6.90
2013,09,24,08,34,6.90
2013,09,24,08,35,6.90
2013,09,24,08,36,6.90
2013,09,24,08,37,6.90
2013,09,24,08,38,6.90
2013,09,24,08,39,6.90
2013,09,24,08,40,6.90
2013,09,24,08,41,6.90
2013,09,24,08,42,7.00
2013,09,24,08,43,7.00
2013,09,24,08,44,7.00
2013,09,24,08,45,7.00
2013,09,24,08,46,7.00
2013,09,24,08,47,7.10
2013,09,24,08,48,7.10
2013,09,24,08,49,7.10
2013,09,24,08,50,7.10
2013,09,24,08,51,7.10
2013,09,24,08,52,7.10
2013,09,24,08,53,7.20
2013,09,24,08,54,7.20
2013,09,24,08,55,7.30
2013,09,24,08,56,7.30
2013,09,24,08,57,7.40
2013,09,24,08,58,7.40
2013,09,24,08,59,7.40
2013,09,24,09,00,7.50
2013,09,24,09,01,7.50
2013,09,24,09,02,7.60
2013,09,24,09,03,7.60
2013,09,24,09,04,7.70
2013,09,24,09,05,7.70
2013,09,24,09,06,7.80
2013,09,24,09,07,7.80
2013,09,24,09,08,7.80
2013,09,24,09,09,7.90
2013,09,24,09,10,7.90
2013,09,24,09,11,7.90
2013,09,24,09,12,8.00
2013,09,24,09,13,8.00
2013,09,24,09,14,8.10
2013,09,24,09,15,8.10
2013,09,24,09,16,8.20
2013,09,24,09,17,8.20
2013,09,24,09,18,8.30
2013,09,24,09,19,8.30
2013,09,24,09,20,8.40
2013,09,24,09,21,8.50
2013,09,24,09,22,8.50
2013,09,24,09,23,8.60
2013,09,24,09,24,8.70
2013,09,24,09,25,8.80
2013,09,24,09,26,8.80
2013,09,24,09,27,8.90
2013,09,24,09,28,8.90
2013,09,24,09,29,9.00
2013,09,24,09,30,9.10
2013,09,24,09,31,9.10
2013,09,24,09,32,9.20
2013,09,24,09,33,9.20
2013,09,24,09,34,9.20
2013,09,24,09,35,9.30
2013,09,24,09,36,9.30
2013,09,24,09,37,9.30
2013,09,24,09,38,9.40
2013,09,24,09,39,9.40
2013,09,24,09,40,9.40
2013,09,24,09,41,9.50
2013,09,24,09,42,9.50
2013,09,24,09,43,9.60
2013,09,24,09,44,9.60
2013,09,24,09,45,9.70
2013,09,24,09,46,9.70
2013,09,24,09,47,9.80
2013,09,24,09,48,9.80
2013,09,24,09,49,9.80
2013,09,24,09,50,9.80
2013,09,24,09,51,9.90
2013,09,24,09,52,9.90
2013,09,24,09,53,9.90
2013,09,24,09,54,10.00
2013,09,24,09,55,10.10
2013,09,24,09,56,10.20
2013,09,24,09,57,10.20
2013,09,24,09,58,10.30
2013,09,24,09,59,10.30
2013,09,24,10,00,10.30
2013,09,24,10,01,10.30
2013,09,24,10,02,10.40
2013,09,24,10,03,10.40
2013,09,24,10,04,10.40
2013,09,24,10,05,10.40
2013,09,24,10,06,10.50
2013,09,24,10,07,10.50
2013,09,24,10,08,10.60
2013,09,24,10,09,10.60
2013,09,24,10,10,10.60
2013,09,24,10,11,10.70
2013,09,24,10,12,10.70
2013,09,24,10,13,10.70
2013,09,24,10,14,10.80
2013,09,24,10,15,10.80
2013,09,24,10,16,10.80
2013,09,24,10,17,10.90
2013,09,24,10,18,10.90
2013,09,24,10,19,11.00
2013,09,24,10,20,11.00
2013,09,24,10,21,11.10
2013,09,24,10,22,11.10
2013,09,24,10,23,11.10
2013,09,24,10,24,11.10
2013,09,24,10,25,11.10
2013,09,24,10,26,11.10
2013,09,24,10,27,11.10
2013,09,24,10,28,11.10
2013,09,24,10,29,11.10
2013,09,24,10,30,11.10
2013,09,24,10,31,11.10
2013,09,24,10,32,11.10
2013,09,24,10,33,11.00
2013,09,24,10,34,11.00
2013,09,24,10,35,11.00
2013,09,24,10,36,11.00
2013,09,24,10,37,11.00
2013,09,24,10,38,11.00
2013,09,24,10,39,11.10
2013,09,24,10,40,11.10
2013,09,24,10,41,11.10
2013,09,24,10,42,11.10
2013,09,24,10,43,11.10
2013,09,24,10,44,11.10
2013,09,24,10,45,11.10
2013,09,24,10,46,11.10
2013,09,24,10,47,11.20
2013,09,24,10,48,11.20
2013,09,24,10,49,11.20
2013,09,24,10,50,11.20
2013,09,24,10,51,11.20
2013,09,24,10,52,11.30
2013,09,24,10,53,11.30
2013,09,24,10,54,11.40
2013,09,24,10,55,11.40
2013,09,24,10,56,11.40
2013,09,24,10,57,11.40
2013,09,24,10,58,11.40
2013,09,24,10,59,11.40
2013,09,24,11,00,11.40
2013,09,24,11,01,11.40
2013,09,24,11,02,11.50
2013,09,24,11,03,11.50
2013,09,24,11,04,11.60
2013,09,24,11,05,11.60
2013,09,24,11,06,11.70
2013,09,24,11,07,11.80
2013,09,24,11,08,11.80
2013,09,24,11,09,11.80
2013,09,24,11,10,11.90
2013,09,24,11,11,11.90
2013,09,24,11,12,11.90
2013,09,24,11,13,11.90
2013,09,24,11,14,12.00
2013,09,24,11,15,12.10
2013,09,24,11,16,12.10
2013,09,24,11,17,12.20
2013,09,24,11,18,12.20
2013,09,24,11,19,12.20
2013,09,24,11,20,12.20
2013,09,24,11,21,12.30
2013,09,24,11,22,12.30
2013,09,24,11,23,12.40
2013,09,24,11,24,12.50
2013,09,24,11,25,12.60
2013,09,24,11,26,12.70
2013,09,24,11,27,12.80
2013,09,24,11,28,12.90
2013,09,24,11,29,12.90
2013,09,24,11,30,13.00
2013,09,24,11,31,13.00
2013,09,24,11,32,13.00
2013,09,24,11,33,13.10
2013,09,24,11,34,13.10
2013,09,24,11,35,13.10
2013,09,24,11,36,13.20
2013,09,24,11,37,13.20
2013,09,24,11,38,13.10
2013,09,24,11,39,13.10
2013,09,24,11,40,13.20
2013,09,24,11,41,13.20
2013,09,24,11,42,13.30
2013,09,24,11,43,13.30
2013,09,24,11,44,13.40
2013,09,24,11,45,13.50
2013,09,24,11,46,13.60
2013,09,24,11,47,13.70
2013,09,24,11,48,13.70
2013,09,24,11,49,13.80
2013,09,24,11,50,13.80
2013,09,24,11,51,13.80
2013,09,24,11,52,13.90
2013,09,24,11,53,13.90
2013,09,24,11,54,13.90
2013,09,24,11,55,14.00
2013,09,24,11,56,14.10
2013,09,24,11,57,14.10
2013,09,24,11,58,14.10
2013,09,24,11,59,14.00
2013,09,24,12,00,13.90
2013,09,24,12,01,13.80
2013,09,24,12,02,13.70
2013,09,24,12,03,13.60
2013,09,24,12,04,13.50
2013,09,24,12,05,13.50
2013,09,24,12,06,13.40
2013,09,24,12,07,13.40
2013,09,24,12,08,13.40
2013,09,24,12,09,13.30
2013,09,24,12,10,13.30
2013,09,24,12,11,13.30
2013,09,24,12,12,13.30
2013,09,24,12,13,13.30
2013,09,24,12,14,13.40
2013,09,24,12,15,13.40
2013,09,24,12,16,13.50
2013,09,24,12,17,13.50
2013,09,24,12,18,13.50
2013,09,24,12,19,13.50
2013,09,24,12,20,13.50
2013,09,24,12,21,13.50
2013,09,24,12,22,13.50
2013,09,24,12,23,13.50
2013,09,24,12,24,13.50
2013,09,24,12,25,13.50
2013,09,24,12,26,13.60
2013,09,24,12,27,13.60
2013,09,24,12,28,13.60
2013,09,24,12,29,13.70
2013,09,24,12,30,13.70
2013,09,24,12,31,13.70
2013,09,24,12,32,13.70
2013,09,24,12,33,13.70
2013,09,24,12,34,13.60
2013,09,24,12,35,13.60
2013,09,24,12,36,13.60
2013,09,24,12,37,13.50
2013,09,24,12,38,13.50
2013,09,24,12,39,13.50
2013,09,24,12,40,13.50
2013,09,24,12,41,13.60
2013,09,24,12,42,13.60
2013,09,24,12,43,13.60
2013,09,24,12,44,13.60
2013,09,24,12,45,13.60
2013,09,24,12,46,13.70
2013,09,24,12,47,13.80
2013,09,24,12,48,13.80
2013,09,24,12,49,13.90
2013,09,24,12,50,14.00
2013,09,24,12,51,14.10
2013,09,24,12,52,14.20
2013,09,24,12,53,14.20
2013,09,24,12,54,14.30
2013,09,24,12,55,14.30
2013,09,24,12,56,14.30
2013,09,24,12,57,14.30
2013,09,24,12,58,14.30
2013,09,24,12,59,14.30
2013,09,24,13,00,14.30
2013,09,24,13,01,14.30
2013,09,24,13,02,14.30
2013,09,24,13,03,14.30
2013,09,24,13,04,14.30
2013,09,24,13,05,14.30
2013,09,24,13,06,14.30
2013,09,24,13,07,14.30
2013,09,24,13,08,14.30
2013,09,24,13,09,14.30
2013,09,24,13,10,14.30
2013,09,24,13,11,14.30
2013,09,24,13,12,14.30
2013,09,24,13,13,14.30
2013,09,24,13,14,14.30
2013,09,24,13,15,14.30
2013,09,24,13,16,14.30
2013,09,24,13,17,14.20
2013,09,24,13,18,14.10
2013,09,24,13,19,14.00
2013,09,24,13,20,13.90
2013,09,24,13,21,13.90
2013,09,24,13,22,13.80
2013,09,24,13,23,13.80
2013,09,24,13,24,13.80
2013,09,24,13,25,13.70
2013,09,24,13,26,13.70
2013,09,24,13,27,13.70
2013,09,24,13,28,13.60
2013,09,24,13,29,13.60
2013,09,24,13,30,13.60
2013,09,24,13,31,13.60
2013,09,24,13,32,13.60
2013,09,24,13,33,13.60
2013,09,24,13,34,13.50
2013,09,24,13,35,13.50
2013,09,24,13,36,13.50
2013,09,24,13,37,13.50
2013,09,24,13,38,13.50
2013,09,24,13,39,13.50
2013,09,24,13,40,13.50
2013,09,24,13,41,13.60
2013,09,24,13,42,13.60
2013,09,24,13,43,13.60
2013,09,24,13,44,13.60
2013,09,24,13,45,13.60
2013,09,24,13,46,13.60
2013,09,24,13,47,13.60
2013,09,24,13,48,13.60
2013,09,24,13,49,13.60
2013,09,24,13,50,13.60
2013,09,24,13,51,13.50
2013,09,24,13,52,13.50
2013,09,24,13,53,13.40
2013,09,24,13,54,13.40
2013,09,24,13,55,13.40
2013,09,24,13,56,13.30
2013,09,24,13,57,13.30
2013,09,24,13,58,13.20
2013,09,24,13,59,13.20
2013,09,24,14,00,13.10
2013,09,24,14,01,13.00
2013,09,24,14,02,13.00
2013,09,24,14,03,12.90
2013,09,24,14,04,12.90
2013,09,24,14,05,12.90
2013,09,24,14,06,12.90
2013,09,24,14,07,12.90
2013,09,24,14,08,12.90
2013,09,24,14,09,12.80
2013,09,24,14,10,12.80
2013,09,24,14,11,12.80
2013,09,24,14,12,12.70
2013,09,24,14,13,12.60
2013,09,24,14,14,12.50
2013,09,24,14,15,12.50
2013,09,24,14,16,12.40
2013,09,24,14,17,12.30
2013,09,24,14,18,12.20
2013,09,24,14,19,12.20
2013,09,24,14,20,12.10
2013,09,24,14,21,12.00
2013,09,24,14,22,11.90
2013,09,24,14,23,11.90
2013,09,24,14,24,11.80
2013,09,24,14,25,11.60
2013,09,24,14,26,11.50
2013,09,24,14,27,11.40
2013,09,24,14,28,11.30
2013,09,24,14,29,11.20
2013,09,24,14,30,11.10
2013,09,24,14,31,11.10
2013,09,24,14,32,11.00
2013,09,24,14,33,11.00
2013,09,24,14,34,10.90
2013,09,24,14,35,10.90
2013,09,24,14,36,10.90
2013,09,24,14,37,10.90
2013,09,24,14,38,10.90
2013,09,24,14,39,10.90
2013,09,24,14,40,10.90
2013,09,24,14,41,10.90
2013,09,24,14,42,10.90
2013,09,24,14,43,10.90
2013,09,24,14,44,10.80
2013,09,24,14,45,10.80
2013,09,24,14,46,10.80
2013,09,24,14,47,10.80
2013,09,24,14,48,10.80
2013,09,24,14,49,10.80
2013,09,24,14,50,10.80
2013,09,24,14,51,10.70
2013,09,24,14,52,10.70
2013,09,24,14,53,10.70
2013,09,24,14,54,10.70
2013,09,24,14,55,10.70
2013,09,24,14,56,10.70
2013,09,24,14,57,10.70
2013,09,24,14,58,10.70
2013,09,24,14,59,10.70
2013,09,24,15,00,10.70
2013,09,24,15,01,10.80
2013,09,24,15,02,10.80
2013,09,24,15,03,10.80
2013,09,24,15,04,10.80
2013,09,24,15,05,10.80
2013,09,24,15,06,10.80
2013,09,24,15,07,10.80
2013,09,24,15,08,10.80
2013,09,24,15,09,10.80
2013,09,24,15,10,10.80
2013,09,24,15,11,10.80
2013,09,24,15,12,10.80
2013,09,24,15,13,10.80
2013,09,24,15,14,10.80
2013,09,24,15,15,10.80
2013,09,24,15,16,10.80
2013,09,24,15,17,10.80
2013,09,24,15,18,10.80
2013,09,24,15,19,10.80
2013,09,24,15,20,10.80
2013,09,24,15,21,10.90
2013,09,24,15,22,10.90
2013,09,24,15,23,10.90
2013,09,24,15,24,11.00
2013,09,24,15,25,11.00
2013,09,24,15,26,11.00
2013,09,24,15,27,11.10
2013,09,24,15,28,11.10
2013,09,24,15,29,11.10
2013,09,24,15,30,11.10
2013,09,24,15,31,11.10
2013,09,24,15,32,11.10
2013,09,24,15,33,11.10
2013,09,24,15,34,11.20
2013,09,24,15,35,11.20
2013,09,24,15,36,11.20
2013,09,24,15,37,11.20
2013,09,24,15,38,11.30
2013,09,24,15,39,11.30
2013,09,24,15,40,11.30
2013,09,24,15,41,11.30
2013,09,24,15,42,11.30
2013,09,24,15,43,11.30
2013,09,24,15,44,11.30
2013,09,24,15,45,11.30
2013,09,24,15,46,11.30
2013,09,24,15,47,11.30
2013,09,24,15,48,11.30
2013,09,24,15,49,11.30
2013,09,24,15,50,11.30
2013,09,24,15,51,11.30
2013,09,24,15,52,11.30
2013,09,24,15,53,11.30
2013,09,24,15,54,11.30
2013,09,24,15,55,11.30
2013,09,24,15,56,11.30
2013,09,24,15,57,11.30
2013,09,24,15,58,11.30
2013,09,24,15,59,11.30
2013,09,24,16,00,11.30
2013,09,24,16,01,11.30
2013,09,24,16,02,11.30
2013,09,24,16,03,11.30
2013,09,24,16,04,11.30
2013,09,24,16,05,11.30
2013,09,24,16,06,11.20
2013,09,24,16,07,11.20
2013,09,24,16,08,11.20
2013,09,24,16,09,11.20
2013,09,24,16,10,11.20
2013,09,24,16,11,11.20
2013,09,24,16,12,11.20
2013,09,24,16,13,11.30
2013,09,24,16,14,11.30
2013,09,24,16,15,11.40
2013,09,24,16,16,11.40
2013,09,24,16,17,11.50
2013,09,24,16,18,11.50
2013,09,24,16,19,11.60
2013,09,24,16,20,11.60
2013,09,24,16,21,11.60
2013,09,24,16,22,11.50
2013,09,24,16,23,11.50
2013,09,24,16,24,11.50
2013,09,24,16,25,11.40
2013,09,24,16,26,11.50
2013,09,24,16,27,11.50
2013,09,24,16,28,11.60
2013,09,24,16,29,11.60
2013,09,24,16,30,11.50
2013,09,24,16,31,11.50
2013,09,24,16,32,11.60
2013,09,24,16,33,11.60
2013,09,24,16,34,11.60
2013,09,24,16,35,11.50
2013,09,24,16,36,11.50
2013,09,24,16,37,11.50
2013,09,24,16,38,11.40
2013,09,24,16,39,11.40
2013,09,24,16,40,11.40
2013,09,24,16,41,11.40
2013,09,24,16,42,11.40
2013,09,24,16,43,11.30
2013,09,24,16,44,11.30
2013,09,24,16,45,11.30
2013,09,24,16,46,11.30
2013,09,24,16,47,11.30
2013,09,24,16,48,11.20
2013,09,24,16,49,11.20
2013,09,24,16,50,11.20
2013,09,24,16,51,11.20
2013,09,24,16,52,11.20
2013,09,24,16,53,11.30
2013,09,24,16,54,11.30
2013,09,24,16,55,11.30
2013,09,24,16,56,11.30
2013,09,24,16,57,11.20
2013,09,24,16,58,11.20
2013,09,24,16,59,11.20
2013,09,24,17,00,11.20
2013,09,24,17,01,11.20
2013,09,24,17,02,11.20
2013,09,24,17,03,11.20
2013,09,24,17,04,11.20
2013,09,24,17,05,11.20
2013,09,24,17,06,11.20
2013,09,24,17,07,11.20
2013,09,24,17,08,11.20
2013,09,24,17,09,11.20
2013,09,24,17,10,11.20
2013,09,24,17,11,11.20
2013,09,24,17,12,11.20
2013,09,24,17,13,11.10
2013,09,24,17,14,11.10
2013,09,24,17,15,11.10
2013,09,24,17,16,11.20
2013,09,24,17,17,11.10
2013,09,24,17,18,11.10
2013,09,24,17,19,11.10
2013,09,24,17,20,11.10
2013,09,24,17,21,11.00
2013,09,24,17,22,11.00
2013,09,24,17,23,10.90
2013,09,24,17,24,10.90
2013,09,24,17,25,10.90
2013,09,24,17,26,10.90
2013,09,24,17,27,10.90
2013,09,24,17,28,10.90
2013,09,24,17,29,10.90
2013,09,24,17,30,10.90
2013,09,24,17,31,11.00
2013,09,24,17,32,11.00
2013,09,24,17,33,11.00
2013,09,24,17,34,11.00
2013,09,24,17,35,11.00
2013,09,24,17,36,11.00
2013,09,24,17,37,11.00
2013,09,24,17,38,11.00
2013,09,24,17,39,11.00
2013,09,24,17,40,11.00
2013,09,24,17,41,11.00
2013,09,24,17,42,11.00
2013,09,24,17,43,11.00
2013,09,24,17,44,11.00
2013,09,24,17,45,10.90